Location: Murdochville
(48.9591°N, 65.4950°W)
Time: 22:27:47
(UTC-04:00)

Envisat - Pass Details

Date: 23 April 2026
Orbit: 761 x 762 km, 98.4° (Epoch: 15 May)

Event Time Altitude Azimuth Distance (km) Brightness Sun altitude
Rises 03:52:47 0° 9° (N) 3,236 7.0 -12.7°
Reaches altitude 10° 03:55:11 10° 2° (N) 2,305 6.0 -12.4°
Maximum altitude 03:59:56 42° 293° (WNW) 1,083 3.6 -11.8°
Enters shadow 04:03:46 15° 228° (SW) 1,964 4.5 -11.3°
